GW4352 Weather Reports


Display with metric or nautical units.
time (UTC)temp
F
wind
direction
speed
MPH
gust
MPH
rain 1hr
in
rain 24hr
in
rain mn
in
humidity
%
barometer
mb
20260505180020 59 342 2.0 6.0 0.00 0.00 0.00 68 1008.9
20260505175026 59 340 2.0 8.0 0.00 0.00 0.00 68 1008.9
20260505174033 59 334 1.0 4.0 0.00 0.00 0.00 68 1009.0
20260505173027 59 358 2.0 7.0 0.00 0.00 0.00 67 1008.9
20260505172017 59 357 3.0 8.0 0.00 0.00 0.00 67 1008.9
20260505171042 59 343 3.0 9.0 0.00 0.00 0.00 66 1009.1
20260505170018 60 350 4.0 9.0 0.00 0.00 0.00 63 1009.0
20260505165025 60 337 3.0 7.0 0.00 0.00 0.00 62 1009.2
20260505164019 60 343 2.0 6.0 0.00 0.00 0.00 62 1009.3
20260505163026 60 343 2.0 6.0 0.00 0.00 0.00 62 1009.1
20260505162035 60 330 3.0 9.0 0.00 0.00 0.00 61 1009.1
20260505161027 60 344 2.0 6.0 0.00 0.00 0.00 62 1009.2
20260505153025 60 23 2.0 6.0 0.00 0.00 0.00 62 1009.1
20260505152018 60 21 3.0 9.0 0.00 0.00 0.00 61 1009.2
20260505151027 60 20 3.0 7.0 0.00 0.00 0.00 62 1009.4
20260505125026 60 38 4.0 8.0 0.00 0.00 0.00 62 1009.9
20260505124017 60 61 7.0 10.0 0.00 0.00 0.00 62 1009.6
20260505123046 60 30 5.0 9.0 0.00 0.00 0.00 65 1009.9
20260505122034 59 35 3.0 8.0 0.00 0.00 0.00 66 1009.9
20260505121026 58 50 2.0 7.0 0.00 0.00 0.00 68 1009.8
20260505120017 59 48 4.0 9.0 0.00 0.00 0.00 67 1009.7
20260505115041 61 42 5.0 10.0 0.00 0.00 0.00 65 1009.7
20260505114019 59 45 3.0 8.0 0.00 0.00 0.00 69 1009.8
20260505113044 59 32 6.0 14.0 0.00 0.00 0.00 69 1009.9
20260505112041 59 350 4.0 8.0 0.00 0.00 0.00 70 1009.9
20260505111026 58 5 3.0 6.0 0.00 0.00 0.00 71 1010.0
20260505102018 55 24 4.0 10.0 0.00 0.00 0.00 78 1010.3
20260505101025 54 32 4.0 8.0 0.00 0.00 0.00 78 1010.4
20260505100018 55 42 4.0 11.0 0.00 0.00 0.00 79 1010.4
20260505095027 54 42 4.0 9.0 0.00 0.00 0.00 79 1010.5
20260505094032 55 34 4.0 10.0 0.00 0.00 0.00 78 1010.5
20260505093027 55 4 3.0 9.0 0.00 0.00 0.00 77 1010.6
20260505092019 55 31 4.0 8.0 0.00 0.00 0.00 77 1010.4
20260505091041 55 26 3.0 8.0 0.00 0.00 0.00 78 1010.4
20260505090018 54 37 3.0 8.0 0.00 0.00 0.00 78 1010.5
20260505085025 54 32 4.0 8.0 0.00 0.00 0.00 79 1010.6
20260505084101 54 40 6.0 13.0 0.00 0.00 0.00 80 1010.5
20260505083026 54 1 4.0 10.0 0.00 0.00 0.00 83 1010.8
20260505082033 54 360 4.0 9.0 0.00 0.00 0.00 85 1010.7
20260505081041 54 10 4.0 10.0 0.00 0.00 0.00 85 1010.6
20260505080019 54 340 2.0 6.0 0.00 0.00 0.00 86 1010.8
20260505075027 54 10 3.0 11.0 0.00 0.00 0.00 86 1010.6
20260505074018 54 36 4.0 9.0 0.00 0.00 0.00 86 1010.6
20260505073048 54 33 3.0 7.0 0.00 0.00 0.00 86 1010.5
20260505072019 54 13 2.0 7.0 0.00 0.00 0.00 87 1010.3
20260505071026 53 34 4.0 8.0 0.00 0.00 0.00 87 1010.6
20260505070053 53 41 3.0 6.0 0.00 0.00 0.00 88 1010.8
20260505065028 53 38 2.0 6.0 0.00 0.00 0.00 89 1010.8
20260505064017 53 36 1.0 4.0 0.00 0.00 0.00 91 1010.8
20260505063041 53 37 2.0 3.0 0.00 0.00 0.00 92 1010.8
20260505062044 53 42 2.0 6.0 0.00 0.00 0.00 92 1010.8
20260505061025 52 46 2.0 4.0 0.00 0.00 0.00 93 1010.7
20260505060020 52 37 2.0 4.0 0.00 0.00 0.00 93 1010.6
20260505055028 52 15 2.0 6.0 0.00 0.00 0.00 93 1010.6
20260505054033 52 26 1.0 4.0 0.00 0.00 0.00 93 1010.7
20260505053028 52 4 2.0 4.0 0.00 0.00 0.00 93 1010.7
20260505052102 52 36 2.0 6.0 0.00 0.00 0.00 93 1010.6
20260505051041 52 18 3.0 7.0 0.00 0.00 0.00 92 1010.5
20260505041047 53 355 0.0 1.0 0.00 0.00 0.00 92 1010.8
20260505040016 53 355 1.0 2.0 0.00 0.00 0.00 91 1010.7
20260505035100 52 355 0.0 1.0 0.00 0.00 0.00 91 1010.7
20260505034017 53 354 0.0 1.0 0.00 0.00 0.00 91 1010.8
20260505033024 52 352 1.0 2.0 0.00 0.00 0.00 91 1010.8
20260505032041 52 23 0.0 2.0 0.00 0.00 0.00 91 1010.9
20260505031027 52 48 1.0 3.0 0.00 0.00 0.00 91 1010.8
20260505030059 53 346 0.0 2.0 0.00 0.00 0.00 90 1011.0
20260505025033 53 343 1.0 2.0 0.00 0.00 0.00 90 1011.0
20260505024017 53 346 1.0 2.0 0.00 0.00 0.00 90 1011.1
20260505023038 53 352 1.0 2.0 0.00 0.00 0.00 90 1010.9
20260505022018 53 345 1.0 2.0 0.00 0.00 0.00 90 1010.9
20260505021031 53 347 1.0 3.0 0.00 0.00 0.00 90 1011.0
20260505020035 53 0.0 0.0 0.00 0.00 0.00 90 1010.9
20260505015046 53 34 0.0 1.0 0.00 0.00 0.00 89 1011.0
20260505014017 53 33 1.0 2.0 0.00 0.00 0.00 89 1011.2
20260505013025 53 35 1.0 3.0 0.00 0.00 0.00 89 1011.2
20260505012018 53 0.0 0.0 0.00 0.00 0.00 89 1011.6
20260505011047 53 16 1.0 2.0 0.00 0.00 0.00 88 1011.6
20260505010019 53 36 2.0 4.0 0.00 0.00 0.00 88 1011.4
20260505005027 53 46 2.0 4.0 0.00 0.00 0.00 88 1011.6
20260505004034 54 74 0.0 2.0 0.00 0.00 0.00 87 1011.9
20260505003027 54 38 2.0 4.0 0.00 0.00 0.00 86 1011.8
20260505002016 54 49 2.0 4.0 0.00 0.00 0.00 86 1011.7
20260505001103 55 33 1.0 3.0 0.00 0.00 0.00 86 1011.9
20260505000018 55 49 2.0 4.0 0.00 0.00 0.00 86 1012.0
20260504235025 55 46 3.0 6.0 0.00 0.00 0.00 86 1012.0
20260504234040 55 41 4.0 10.0 0.00 0.00 0.00 85 1011.8
20260504233026 55 41 3.0 8.0 0.00 0.00 0.00 86 1012.0
20260504232056 55 34 3.0 8.0 0.00 0.00 0.00 85 1011.8
20260504231027 56 46 3.0 11.0 0.00 0.00 0.00 85 1011.9
20260504230017 56 46 3.0 7.0 0.00 0.00 0.00 85 1012.0
20260504225041 56 42 2.0 7.0 0.00 0.00 0.00 86 1012.1
20260504224018 56 47 1.0 6.0 0.00 0.00 0.00 86 1012.2
20260504223026 56 41 1.0 3.0 0.00 0.00 0.00 87 1012.2
20260504222018 56 25 0.0 3.0 0.00 0.00 0.00 87 1012.2
20260504221047 56 352 2.0 6.0 0.00 0.00 0.00 87 1012.1
20260504220033 56 350 2.0 4.0 0.00 0.00 0.00 87 1012.4
20260504215029 56 23 1.0 3.0 0.00 0.00 0.00 88 1012.2
20260504214022 56 346 1.0 2.0 0.00 0.00 0.00 88 1012.3
20260504213043 56 0.0 0.0 0.00 0.00 0.00 89 1012.4
20260504212037 55 0.0 0.0 0.00 0.00 0.00 89 1012.3
20260504211024 55 0.0 0.0 0.00 0.00 0.00 89 1012.4
20260504210018 55 0.0 0.0 0.00 0.00 0.00 89 1012.4
20260504205026 55 0.0 0.0 0.00 0.00 0.00 88 1012.4
20260504204115 55 0.0 0.0 0.00 0.00 0.00 88 1012.3
20260504203026 55 0.0 0.0 0.00 0.00 0.00 88 1012.3
20260504202018 55 0.0 0.0 0.00 0.00 0.00 88 1012.3
20260504201041 55 0.0 0.0 0.00 0.00 0.00 87 1012.2
20260504200019 56 0.0 0.0 0.00 0.00 0.00 86 1012.3
20260504195025 56 0.0 0.0 0.00 0.00 0.00 85 1012.1
20260504194019 57 35 1.0 2.0 0.00 0.00 0.00 84 1012.0
20260504193040 57 20 0.0 2.0 0.00 0.00 0.00 83 1011.8
20260504192054 58 40 1.0 3.0 0.00 0.00 0.00 83 1011.6
20260504191024 58 59 1.0 2.0 0.00 0.00 0.00 82 1011.7
20260504190016 58 32 2.0 4.0 0.00 0.00 0.00 81 1011.8
20260504185048 58 45 2.0 7.0 0.00 0.00 0.00 81 1011.6
20260504184018 58 44 3.0 7.0 0.00 0.00 0.00 81 1011.7
20260504183025 59 40 2.0 6.0 0.00 0.00 0.00 81 1011.8
20260504182026 59 42 2.0 6.0 0.00 0.00 0.00 81 1011.6
20260504181025 59 45 3.0 8.0 0.00 0.00 0.00 80 1011.6